Location: Kearney
(40.6990°N, 99.0810°W)
Time: 00:03:16
(UTC-05:00)

SJ 16-02 - Pass Details

Date: 18 December 2017
Orbit: 606 x 617 km, 75.0° (Epoch: 15 July)

Event Time Altitude Azimuth Distance (km) Brightness Sun altitude
Rises 18:56:42 0° 231° (SW) 2,856 5.9 -19.3°
Reaches altitude 10° 18:59:20 10° 246° (WSW) 1,959 5.1 -19.8°
Maximum altitude 19:02:45 22° 298° (WNW) 1,351 3.6 -20.4°
Drops below altitude 10° 19:06:11 10° 349° (N) 1,975 3.9 -21.0°
Enters shadow 19:07:35 - 359° (N) 2,430 4.3 -21.3°
